Weather History for St. James, MN

Change the Weather History Date:

Wednesday, November 13, 2013

  Actual Average Record
Temperature  
Mean Temperature 38 °F -  
Max Temperature 53 °F 40 °F 82 °F (1999)
Min Temperature 23 °F 24 °F -5 °F (1986)
Degree Days  
Heating Degree Days 27    
Moisture  
Dew Point 26 °F    
Average Humidity 62    
Maximum Humidity 75    
Minimum Humidity 47    
Precipitation  
Precipitation 0.00 in - - ()
Sea Level Pressure  
Sea Level Pressure 30.09 in    
Wind  
Wind Speed 11 mph (South)    
Max Wind Speed 21 mph    
Max Gust Speed 26 mph    
Visibility 10 miles    
Events      
Averages and records for this station are not official NWS values.
T = Trace of Precipitation, MM = Missing Value Source: NWS Daily Summary

Daily Weather History Graph

Daily Weather History Graph

Search for Another Location

Airport:

Trip Planner

Search our weather history database for the weather conditions in past years. The results will help you decide how hot, cold, wet, or windy it might be!

Date:

Astronomy

Nov. 13, 2013 Rise Set
Actual Time 7:10 AM CST 4:53 PM CST
Civil Twilight 6:39 AM CST 5:24 PM CST
Nautical Twilight 6:05 AM CST 5:59 PM CST
Astronomical Twilight 5:31 AM CST 6:33 PM CST
Moon 2:48 PM CST (11/13) 2:57 AM CST (11/13)
Length of Visible Light 10h 44m
Length of Day
9h 42m
Waxing Gibbous, 85% of the Moon is Illuminated
Nov 13
Waxing Gibbous
Nov 17
Full
Nov 25
Last Quarter
Dec 2
New
Dec 9
First Quarter

Hourly Weather History & Observations

Time (CST) Temp. Windchill Dew Point Humidity Pressure Visibility Wind Dir Wind Speed Gust Speed Precip Events Conditions
12:15 AM 23.0 °F 14.7 °F 14.0 °F 68% 30.44 in 10.0 mi South 6.9 mph - N/A   Clear
12:35 AM 24.8 °F 16.1 °F 14.0 °F 64% 30.42 in 10.0 mi South 8.1 mph - N/A   Clear
12:55 AM 24.8 °F 15.3 °F 14.0 °F 64% 30.41 in 10.0 mi South 9.2 mph - N/A   Clear
1:15 AM 24.8 °F 14.0 °F 14.0 °F 64% 30.39 in 10.0 mi South 11.5 mph - N/A   Clear
1:35 AM 24.8 °F 15.3 °F 15.8 °F 69% 30.38 in 10.0 mi South 9.2 mph - N/A   Clear
1:54 AM 24.8 °F 15.3 °F 15.8 °F 69% 30.37 in 10.0 mi South 9.2 mph - N/A   Clear
2:15 AM 26.6 °F 16.8 °F 15.8 °F 64% 30.34 in 10.0 mi South 10.4 mph - N/A   Clear
2:35 AM 26.6 °F 16.2 °F 15.8 °F 64% 30.34 in 10.0 mi South 11.5 mph - N/A   Clear
2:54 AM 26.6 °F 16.2 °F 15.8 °F 64% 30.33 in 10.0 mi South 11.5 mph - N/A   Clear
3:15 AM 26.6 °F 15.7 °F 17.6 °F 69% 30.31 in 10.0 mi South 12.7 mph - N/A   Clear
3:35 AM 26.6 °F 14.7 °F 17.6 °F 69% 30.29 in 10.0 mi South 15.0 mph - N/A   Clear
3:55 AM 26.6 °F 15.7 °F 17.6 °F 69% 30.28 in 10.0 mi South 12.7 mph - N/A   Clear
4:14 AM 26.6 °F 16.8 °F 17.6 °F 69% 30.27 in 10.0 mi South 10.4 mph - N/A   Clear
4:35 AM 28.4 °F 17.5 °F 17.6 °F 64% 30.26 in 10.0 mi South 13.8 mph - N/A   Clear
4:55 AM 26.6 °F 16.2 °F 17.6 °F 69% 30.25 in 10.0 mi South 11.5 mph - N/A   Clear
5:14 AM 26.6 °F 15.7 °F 17.6 °F 69% 30.25 in 10.0 mi South 12.7 mph - N/A   Clear
5:35 AM 26.6 °F 17.5 °F 17.6 °F 69% 30.24 in 10.0 mi South 9.2 mph - N/A   Clear
5:55 AM 26.6 °F 16.2 °F 17.6 °F 69% 30.22 in 10.0 mi South 11.5 mph - N/A   Clear
6:14 AM 26.6 °F 18.2 °F 19.4 °F 74% 30.22 in 10.0 mi South 8.1 mph - N/A   Clear
6:35 AM 26.6 °F 17.5 °F 19.4 °F 74% 30.20 in 10.0 mi South 9.2 mph - N/A   Clear
6:55 AM 26.6 °F 16.2 °F 19.4 °F 74% 30.19 in 10.0 mi South 11.5 mph - N/A   Clear
7:15 AM 26.6 °F 15.7 °F 19.4 °F 74% 30.18 in 10.0 mi South 12.7 mph - N/A   Clear
7:35 AM 26.6 °F 16.2 °F 19.4 °F 74% 30.17 in 10.0 mi South 11.5 mph - N/A   Clear
7:55 AM 28.4 °F 19.1 °F 19.4 °F 69% 30.17 in 10.0 mi South 10.4 mph - N/A   Clear
8:14 AM 30.2 °F 19.8 °F 21.2 °F 69% 30.15 in 10.0 mi South 13.8 mph - N/A   Clear
8:35 AM 32.0 °F 21.6 °F 21.2 °F 64% 30.14 in 10.0 mi South 15.0 mph - N/A   Clear
8:55 AM 32.0 °F 22.1 °F 21.2 °F 64% 30.14 in 10.0 mi South 13.8 mph - N/A   Clear
9:15 AM 33.8 °F 22.2 °F 21.2 °F 60% 30.12 in 10.0 mi South 20.7 mph - N/A   Clear
9:34 AM 33.8 °F 22.8 °F 23.0 °F 65% 30.12 in 10.0 mi South 18.4 mph 26.5 mph N/A   Clear
9:55 AM 35.6 °F 26.2 °F 24.8 °F 65% 30.12 in 10.0 mi South 15.0 mph - N/A   Clear
10:15 AM 37.4 °F 28.5 °F 26.6 °F 65% 30.11 in 10.0 mi South 15.0 mph - N/A   Clear
10:35 AM 39.2 °F 31.2 °F 26.6 °F 61% 30.11 in 10.0 mi South 13.8 mph - N/A   Clear
10:54 AM 41.0 °F 33.9 °F 28.4 °F 61% 30.09 in 10.0 mi South 12.7 mph - N/A   Clear
11:15 AM 44.6 °F 37.8 °F 28.4 °F 53% 30.09 in 10.0 mi SSW 15.0 mph 18.4 mph N/A   Clear
11:35 AM 46.4 °F 41.5 °F 30.2 °F 53% 30.08 in 10.0 mi SSW 10.4 mph - N/A   Clear
11:55 AM 48.2 °F - 32.0 °F 54% 30.07 in 10.0 mi SSW 9.2 mph - N/A   Clear
12:15 PM 48.2 °F - 32.0 °F 54% 30.03 in 10.0 mi South 16.1 mph 26.5 mph N/A   Clear
12:35 PM 51.8 °F - 33.8 °F 50% 30.02 in 10.0 mi SSW 17.3 mph 24.2 mph N/A   Clear
12:55 PM 51.8 °F - 33.8 °F 50% 30.01 in 10.0 mi SSW 13.8 mph 25.3 mph N/A   Clear
1:15 PM 53.6 °F - 33.8 °F 47% 29.99 in 10.0 mi South 17.3 mph 24.2 mph N/A   Clear
1:35 PM 41.0 °F 32.8 °F 26.6 °F 57% 29.98 in 10.0 mi SSW 16.1 mph 25.3 mph N/A   Clear
1:55 PM 53.6 °F - 33.8 °F 47% 29.98 in 10.0 mi SSW 13.8 mph 25.3 mph N/A   Clear
2:15 PM 53.6 °F - 33.8 °F 47% 29.99 in 10.0 mi SW 19.6 mph 26.5 mph N/A   Clear
2:34 PM 53.6 °F - 33.8 °F 47% 29.99 in 10.0 mi SSW 12.7 mph 26.5 mph N/A   Clear
2:54 PM 53.6 °F - 33.8 °F 47% 29.97 in 10.0 mi South 11.5 mph 18.4 mph N/A   Clear
3:15 PM 53.6 °F - 33.8 °F 47% 29.97 in 10.0 mi SSW 10.4 mph 18.4 mph N/A   Clear
3:35 PM 53.6 °F - 33.8 °F 47% 29.98 in 10.0 mi SSW 12.7 mph - N/A   Clear
3:55 PM 53.6 °F - 33.8 °F 47% 29.98 in 10.0 mi SSW 11.5 mph 18.4 mph N/A   Clear
4:15 PM 51.8 °F - 33.8 °F 50% 29.96 in 10.0 mi South 12.7 mph 16.1 mph N/A   Clear
4:35 PM 48.2 °F - 33.8 °F 58% 29.96 in 10.0 mi South 12.7 mph - N/A   Clear
4:54 PM 46.4 °F 40.7 °F 32.0 °F 57% 29.96 in 10.0 mi South 12.7 mph - N/A   Clear
5:15 PM 46.4 °F 40.1 °F 30.2 °F 53% 29.95 in 10.0 mi South 15.0 mph - N/A   Clear
5:35 PM 46.4 °F 40.1 °F 30.2 °F 53% 29.94 in 10.0 mi South 15.0 mph - N/A   Clear
5:55 PM 44.6 °F 37.4 °F 30.2 °F 57% 29.94 in 10.0 mi South 16.1 mph 21.9 mph N/A   Clear
6:15 PM 44.6 °F 38.4 °F 30.2 °F 57% 29.95 in 10.0 mi SSW 12.7 mph 18.4 mph N/A   Clear
6:34 PM 44.6 °F 39.2 °F 30.2 °F 57% 29.95 in 10.0 mi South 10.4 mph - N/A   Clear
6:55 PM 42.8 °F 37.0 °F 30.2 °F 61% 29.95 in 10.0 mi SSW 10.4 mph - N/A   Clear
7:15 PM 42.8 °F 37.0 °F 30.2 °F 61% 29.94 in 10.0 mi South 10.4 mph - N/A   Clear
7:34 PM 42.8 °F 37.0 °F 30.2 °F 61% 29.94 in 10.0 mi South 10.4 mph - N/A   Clear
7:55 PM 42.8 °F 37.5 °F 30.2 °F 61% 29.94 in 10.0 mi SSW 9.2 mph - N/A   Clear
8:15 PM 41.0 °F 35.2 °F 30.2 °F 65% 29.94 in 10.0 mi South 9.2 mph - N/A   Clear
8:35 PM 42.8 °F 38.0 °F 30.2 °F 61% 29.94 in 10.0 mi SSW 8.1 mph - N/A   Clear
8:55 PM 42.8 °F 37.5 °F 30.2 °F 61% 29.93 in 10.0 mi SSW 9.2 mph - N/A   Clear
9:15 PM 42.8 °F 37.5 °F 30.2 °F 61% 29.93 in 10.0 mi SSW 9.2 mph - N/A   Clear
9:35 PM 42.8 °F 37.5 °F 30.2 °F 61% 29.93 in 10.0 mi SSW 9.2 mph - N/A   Clear
9:55 PM 41.0 °F 35.8 °F 30.2 °F 65% 29.92 in 10.0 mi SSW 8.1 mph - N/A   Clear
10:15 PM 41.0 °F 36.4 °F 30.2 °F 65% 29.92 in 10.0 mi SSW 6.9 mph - N/A   Clear
10:35 PM 39.2 °F 34.2 °F 30.2 °F 70% 29.91 in 10.0 mi SSW 6.9 mph - N/A   Clear
10:55 PM 39.2 °F 34.2 °F 30.2 °F 70% 29.91 in 10.0 mi SSW 6.9 mph - N/A   Clear
11:15 PM 39.2 °F 34.2 °F 30.2 °F 70% 29.90 in 10.0 mi SSW 6.9 mph - N/A   Clear
11:35 PM 39.2 °F 35.0 °F 30.2 °F 70% 29.90 in 10.0 mi SSW 5.8 mph - N/A   Clear
11:55 PM 37.4 °F 32.8 °F 30.2 °F 75% 29.90 in 10.0 mi SSW 5.8 mph - N/A   Clear